�������l�o���
Date,Time,MP-1(��Sv/h),MP-2(��Sv/h),MP-3(��Sv/h),MP-4(��Sv/h),MP-5(��Sv/h),MP-6(��Sv/h),MP-7(��Sv/h),����,����(m/s),���J
2014/11/19,00:00,0.628,0.396,0.662,0.596,0.590,0.275,0.243,�k��,2.2,��
2014/11/19,00:10,0.626,0.397,0.660,0.596,0.589,0.276,0.243,���k��,4.2,��
2014/11/19,00:20,0.627,0.398,0.661,0.595,0.590,0.276,0.243,�k��,3.1,��
2014/11/19,00:30,0.629,0.397,0.661,0.597,0.590,0.275,0.243,�k,2.6,��
2014/11/19,00:40,0.627,0.397,0.661,0.598,0.589,0.276,0.243,�k��,4.9,��
2014/11/19,00:50,0.626,0.399,0.661,0.596,0.588,0.276,0.244,�k��,5.7,��
2014/11/19,01:00,0.626,0.397,0.661,0.598,0.589,0.275,0.243,�k��,5.3,��
2014/11/19,01:10,0.625,0.396,0.661,0.598,0.588,0.276,0.243,�k�k��,4.9,��
2014/11/19,01:20,0.627,0.397,0.661,0.596,0.591,0.275,0.244,�k�k��,4.5,��
2014/11/19,01:30,0.627,0.398,0.662,0.597,0.590,0.274,0.243,�k��,4.7,��
2014/11/19,01:40,0.628,0.396,0.662,0.597,0.589,0.274,0.243,�k��,4.2,��
2014/11/19,01:50,0.627,0.399,0.660,0.597,0.589,0.276,0.243,�k�k��,4.3,��
2014/11/19,02:00,0.627,0.396,0.661,0.598,0.588,0.275,0.243,�k�k��,3.3,��
2014/11/19,02:10,0.626,0.398,0.661,0.597,0.588,0.274,0.243,�k�k��,3.3,��
2014/11/19,02:20,0.627,0.398,0.663,0.598,0.589,0.276,0.243,�k��,4.5,��
2014/11/19,02:30,0.626,0.396,0.662,0.596,0.589,0.277,0.243,�k��,4.6,��
2014/11/19,02:40,0.627,0.397,0.662,0.596,0.590,0.275,0.242,�k�k��,4.6,��
2014/11/19,02:50,0.627,0.397,0.663,0.598,0.587,0.276,0.244,�k�k��,4.9,��
2014/11/19,03:00,0.628,0.397,0.661,0.599,0.588,0.275,0.244,�k�k��,4.2,��
2014/11/19,03:10,0.627,0.398,0.662,0.598,0.589,0.275,0.244,�k�k��,4.3,��
2014/11/19,03:20,0.625,0.396,0.662,0.597,0.588,0.274,0.244,�k�k��,4.8,��
2014/11/19,03:30,0.627,0.398,0.663,0.597,0.590,0.276,0.243,�k�k��,4.5,��
2014/11/19,03:40,0.627,0.400,0.663,0.598,0.591,0.277,0.244,�k��,4.8,��
2014/11/19,03:50,0.627,0.397,0.661,0.597,0.590,0.275,0.243,�k�k��,5.0,��
2014/11/19,04:00,0.627,0.397,0.660,0.598,0.589,0.275,0.242,�k��,5.5,��
2014/11/19,04:10,0.630,0.398,0.661,0.599,0.589,0.275,0.243,�k��,4.7,��
2014/11/19,04:20,0.627,0.398,0.661,0.597,0.589,0.275,0.242,�k�k��,4.6,��
2014/11/19,04:30,0.627,0.397,0.662,0.597,0.590,0.276,0.243,�k��,3.2,��
2014/11/19,04:40,0.627,0.398,0.662,0.597,0.589,0.276,0.243,�k�k��,3.3,��
2014/11/19,04:50,0.628,0.398,0.661,0.596,0.591,0.276,0.242,�k�k��,3.2,��
2014/11/19,05:00,0.627,0.397,0.661,0.597,0.589,0.275,0.244,�k�k��,3.1,��
2014/11/19,05:10,0.629,0.398,0.662,0.597,0.590,0.275,0.244,�k�k��,3.1,��
2014/11/19,05:20,0.626,0.396,0.662,0.596,0.589,0.275,0.243,�k�k��,2.5,��
2014/11/19,05:30,0.628,0.398,0.664,0.597,0.589,0.275,0.242,�k��,2.2,��
2014/11/19,05:40,0.627,0.396,0.661,0.596,0.590,0.274,0.242,���k��,1.1,��
2014/11/19,05:50,0.628,0.398,0.661,0.596,0.590,0.274,0.242,��쐼,1.2,��
2014/11/19,06:00,0.626,0.398,0.664,0.597,0.589,0.274,0.242,���쐼,1.7,��
2014/11/19,06:10,0.627,0.398,0.660,0.597,0.589,0.275,0.243,���쐼,3.7,��
2014/11/19,06:20,0.627,0.397,0.662,0.598,0.590,0.273,0.244,��,4.2,��
2014/11/19,06:30,0.628,0.397,0.663,0.597,0.588,0.275,0.242,��,3.3,��
2014/11/19,06:40,0.627,0.398,0.661,0.597,0.588,0.275,0.243,���k��,2.5,��
2014/11/19,06:50,0.628,0.398,0.661,0.598,0.588,0.275,0.243,�k�k��,1.1,��
2014/11/19,07:00,0.629,0.397,0.662,0.599,0.588,0.275,0.243,�k,1.1,��
2014/11/19,07:10,0.626,0.397,0.661,0.599,0.589,0.274,0.242,�k�k��,2.6,��
2014/11/19,07:20,0.629,0.397,0.662,0.596,0.590,0.275,0.242,�k��,2.8,��
2014/11/19,07:30,0.625,0.396,0.663,0.598,0.591,0.275,0.242,���k��,2.8,��
2014/11/19,07:40,0.627,0.398,0.662,0.597,0.590,0.275,0.242,���k��,3.8,��
2014/11/19,07:50,0.628,0.398,0.662,0.597,0.590,0.276,0.242,���k��,2.4,��
2014/11/19,08:00,0.626,0.396,0.663,0.598,0.589,0.274,0.242,��,2.5,��
2014/11/19,08:10,0.627,0.397,0.664,0.599,0.589,0.274,0.242,��,2.1,��
2014/11/19,08:20,0.627,0.396,0.663,0.598,0.589,0.273,0.242,���k��,2.3,��
2014/11/19,08:30,0.627,0.396,0.661,0.599,0.592,0.274,0.242,�k�k��,1.5,��
2014/11/19,08:40,0.628,0.396,0.664,0.599,0.591,0.273,0.241,�k,2.6,��
2014/11/19,08:50,0.630,0.398,0.665,0.599,0.589,0.273,0.242,�k,2.7,��
2014/11/19,09:00,0.627,0.397,0.664,0.599,0.591,0.275,0.243,�k��,2.7,��
2014/11/19,09:10,0.628,0.396,0.663,0.600,0.591,0.275,0.242,�k�k��,3.2,��
2014/11/19,09:20,0.630,0.397,0.664,0.598,0.588,0.275,0.243,�k�k��,2.9,��
2014/11/19,09:30,0.629,0.398,0.665,0.603,0.591,0.275,0.241,�k�k��,3.5,��
2014/11/19,09:40,0.629,0.397,0.664,0.602,0.591,0.274,0.242,�k�k��,3.5,��
2014/11/19,09:50,0.630,0.398,0.664,0.601,0.590,0.274,0.243,�k�k��,4.4,��
2014/11/19,10:00,0.630,0.398,0.664,0.601,0.592,0.274,0.243,�k��,3.6,��
2014/11/19,10:10,0.629,0.397,0.664,0.603,0.591,0.275,0.243,�k�k��,3.1,��
2014/11/19,10:20,0.628,0.397,0.666,0.601,0.592,0.273,0.242,�k��,2.8,��
2014/11/19,10:30,0.630,0.398,0.664,0.602,0.592,0.275,0.243,���k��,1.7,��
2014/11/19,10:40,0.630,0.399,0.664,0.601,0.591,0.275,0.241,�k��,2.2,��
2014/11/19,10:50,0.631,0.398,0.664,0.603,0.592,0.275,0.242,���k��,3.9,��
2014/11/19,11:00,0.630,0.398,0.662,0.602,0.592,0.276,0.242,���k��,4.0,��
2014/11/19,11:10,0.631,0.398,0.664,0.600,0.592,0.275,0.243,���k��,3.4,��
2014/11/19,11:20,0.631,0.398,0.664,0.602,0.593,0.274,0.242,��,1.7,��
2014/11/19,11:30,0.629,0.399,0.665,0.602,0.593,0.274,0.243,�k�k��,2.4,��
2014/11/19,11:40,0.629,0.399,0.665,0.600,0.592,0.275,0.242,�k�k��,2.5,��
2014/11/19,11:50,0.629,0.400,0.664,0.600,0.591,0.274,0.243,�k��,2.2,��
2014/11/19,12:00,0.630,0.400,0.666,0.601,0.592,0.275,0.244,�k��,2.5,��
2014/11/19,12:10,0.630,0.398,0.665,0.601,0.591,0.275,0.243,�k�k��,3.2,��
2014/11/19,12:20,0.630,0.399,0.664,0.601,0.591,0.276,0.243,�k�k��,3.4,��
2014/11/19,12:30,0.631,0.398,0.665,0.600,0.589,0.275,0.246,�k��,2.7,��
2014/11/19,12:40,0.630,0.400,0.663,0.601,0.591,0.274,0.241,�k,2.1,��
2014/11/19,12:50,0.630,0.399,0.665,0.601,0.589,0.274,0.243,�k�k��,2.0,��
2014/11/19,13:00,0.630,0.398,0.665,0.600,0.590,0.276,0.242,�k�k��,1.9,��
2014/11/19,13:10,0.632,0.399,0.664,0.601,0.588,0.275,0.243,�k�k��,2.5,��
2014/11/19,13:20,0.629,0.399,0.666,0.600,0.589,0.275,0.242,���k��,2.6,��
2014/11/19,13:30,0.631,0.398,0.666,0.601,0.589,0.275,0.244,�k��,3.3,��
2014/11/19,13:40,0.630,0.398,0.664,0.602,0.590,0.274,0.244,�k,3.5,��
2014/11/19,13:50,0.631,0.398,0.665,0.599,0.587,0.276,0.243,�k,3.2,��
2014/11/19,14:00,0.631,0.399,0.664,0.600,0.589,0.276,0.242,�k�k��,4.5,��
2014/11/19,14:10,0.629,0.397,0.664,0.600,0.589,0.275,0.242,�k,3.6,��
2014/11/19,14:20,0.629,0.397,0.664,0.601,0.589,0.275,0.244,�k,3.8,��
2014/11/19,14:30,0.630,0.398,0.665,0.601,0.589,0.277,0.244,�k,4.5,��
2014/11/19,14:40,0.630,0.398,0.665,0.599,0.586,0.275,0.243,�k,2.7,��
2014/11/19,14:50,0.629,0.398,0.663,0.599,0.589,0.275,0.243,�k,4.8,��
2014/11/19,15:00,0.630,0.398,0.663,0.600,0.590,0.275,0.243,�k,3.6,��
2014/11/19,15:10,0.630,0.397,0.665,0.598,0.590,0.275,0.243,�k,3.2,��
2014/11/19,15:20,0.629,0.398,0.662,0.598,0.590,0.275,0.243,�k,4.0,��
2014/11/19,15:30,0.628,0.397,0.666,0.600,0.589,0.275,0.243,�k,1.6,��
2014/11/19,15:40,0.630,0.397,0.664,0.600,0.590,0.275,0.244,�k,0.9,��
2014/11/19,15:50,0.631,0.397,0.665,0.600,0.589,0.275,0.244,���k��,0.7,��
2014/11/19,16:00,0.628,0.396,0.662,0.598,0.591,0.277,0.243,�k�k��,0.6,��
2014/11/19,16:10,0.631,0.399,0.663,0.599,0.589,0.275,0.244,�k�k��,1.3,��
2014/11/19,16:20,0.630,0.399,0.662,0.599,0.589,0.276,0.244,�k�k��,0.8,��
2014/11/19,16:30,0.629,0.399,0.664,0.599,0.591,0.275,0.244,�k�k��,2.0,��
2014/11/19,16:40,0.630,0.399,0.663,0.599,0.589,0.274,0.243,�k��,2.4,��
2014/11/19,16:50,0.629,0.399,0.663,0.599,0.590,0.275,0.243,�k��,1.9,��
2014/11/19,17:00,0.629,0.399,0.664,0.600,0.590,0.274,0.243,�k�k��,2.8,��
2014/11/19,17:10,0.630,0.399,0.663,0.600,0.591,0.274,0.243,�k�k��,3.5,��
2014/11/19,17:20,0.630,0.400,0.663,0.599,0.589,0.276,0.245,�k,3.3,��
2014/11/19,17:30,0.629,0.399,0.663,0.599,0.590,0.275,0.243,�k�k��,2.8,��
2014/11/19,17:40,0.628,0.399,0.664,0.599,0.589,0.275,0.244,�k�k��,2.0,��
2014/11/19,17:50,0.628,0.399,0.662,0.601,0.591,0.276,0.244,���k��,1.7,��
2014/11/19,18:00,0.630,0.400,0.662,0.598,0.590,0.276,0.243,�k�k��,1.7,��
2014/11/19,18:10,0.629,0.399,0.665,0.599,0.590,0.274,0.244,�k�k��,2.7,��
2014/11/19,18:20,0.627,0.399,0.662,0.598,0.589,0.275,0.244,�k��,1.1,��
2014/11/19,18:30,0.628,0.399,0.663,0.599,0.588,0.275,0.246,�k��,1.1,��
2014/11/19,18:40,0.628,0.399,0.665,0.598,0.589,0.274,0.245,�k,3.7,��
2014/11/19,18:50,0.628,0.397,0.663,0.599,0.588,0.275,0.245,�k�k��,3.0,��
2014/11/19,19:00,0.628,0.400,0.663,0.598,0.591,0.276,0.243,�k�k��,2.3,��
2014/11/19,19:10,0.627,0.399,0.664,0.597,0.588,0.275,0.245,�k�k��,2.4,��
2014/11/19,19:20,0.628,0.398,0.663,0.598,0.590,0.276,0.244,�k�k��,1.9,��
2014/11/19,19:30,0.630,0.397,0.665,0.599,0.590,0.276,0.246,�k�k��,2.2,��
2014/11/19,19:40,0.628,0.398,0.664,0.599,0.590,0.276,0.244,�k�k��,3.3,��
2014/11/19,19:50,0.628,0.398,0.664,0.598,0.590,0.275,0.244,�k�k��,3.6,��
2014/11/19,20:00,0.629,0.398,0.664,0.598,0.588,0.275,0.244,�k�k��,3.2,��
2014/11/19,20:10,0.630,0.398,0.661,0.600,0.589,0.275,0.245,�k�k��,3.1,��
2014/11/19,20:20,0.628,0.398,0.664,0.600,0.589,0.276,0.244,�k�k��,1.7,��
2014/11/19,20:30,0.630,0.399,0.665,0.600,0.590,0.275,0.244,�k�k��,1.5,��
2014/11/19,20:40,0.630,0.400,0.666,0.599,0.591,0.276,0.245,�k�k��,1.9,��
2014/11/19,20:50,0.627,0.398,0.663,0.599,0.590,0.275,0.245,�k�k��,1.5,��
2014/11/19,21:00,0.627,0.397,0.662,0.601,0.589,0.276,0.245,�k�k��,1.6,��
2014/11/19,21:10,0.628,0.398,0.663,0.598,0.590,0.276,0.245,�k�k��,2.3,��
2014/11/19,21:20,0.630,0.398,0.662,0.598,0.589,0.274,0.246,�k�k��,1.8,��
2014/11/19,21:30,0.628,0.396,0.661,0.598,0.589,0.275,0.244,���k��,1.5,��
2014/11/19,21:40,0.627,0.398,0.664,0.600,0.590,0.276,0.244,�k�k��,1.5,��
2014/11/19,21:50,0.629,0.398,0.664,0.599,0.590,0.276,0.245,�k�k��,1.5,��
2014/11/19,22:00,0.629,0.398,0.663,0.599,0.588,0.275,0.245,�k�k��,1.5,��
2014/11/19,22:10,0.626,0.398,0.664,0.599,0.588,0.277,0.244,�k�k��,1.9,��
2014/11/19,22:20,0.631,0.398,0.664,0.599,0.591,0.276,0.245,�k�k��,1.4,��
2014/11/19,22:30,0.627,0.398,0.662,0.598,0.590,0.275,0.245,�k,2.5,��
2014/11/19,22:40,0.629,0.397,0.662,0.599,0.589,0.275,0.244,�k,3.0,��
2014/11/19,22:50,0.628,0.399,0.664,0.598,0.589,0.275,0.244,�k,4.2,��
2014/11/19,23:00,0.629,0.398,0.662,0.599,0.588,0.277,0.244,�k,3.9,��
2014/11/19,23:10,0.628,0.397,0.662,0.599,0.588,0.276,0.245,�k,4.2,��
2014/11/19,23:20,0.629,0.398,0.663,0.598,0.590,0.276,0.244,�k,4.2,��
2014/11/19,23:30,0.627,0.399,0.662,0.598,0.592,0.276,0.245,�k�k��,4.4,��
2014/11/19,23:40,0.627,0.399,0.663,0.599,0.589,0.275,0.245,�k,4.7,��
2014/11/19,23:50,0.628,0.398,0.663,0.598,0.589,0.276,0.245,�k,5.0,��
